Вернуться в каталог

ATLAS 5 CENTAUR DEB

LostHEO
NORAD 49345·DEBRIS·🇺🇸 United States

Запущен Oct 17, 2018 с Cape Canaveral Space Force Station

Loading…

Ближайшие Пролёты (ближайшие 24 часа)

TLE

УстаревшееSource: Space-Track

Эпоха: Jul 7, 2024, 23:22 UTC

1 49345U 18079EW  24189.97407434 -.00000161  00000-0  00000+0 0  9990
2 49345  11.9259  80.2908 4866406 250.6390  51.8437  1.86991991 19539

Отслеживайте ATLAS 5 CENTAUR DEB в реальном времени с AllMySat

Download on the App Store